TimePST,TemperatureF,Dew PointF,Humidity,Sea Level PressureIn,VisibilityMPH,Wind Direction,Wind SpeedMPH,Gust SpeedMPH,PrecipitationIn,Events,Conditions,WindDirDegrees,DateUTC
12:53 AM,43.0,36.0,76,30.12,10.0,Calm,Calm,-,N/A,,Overcast,0,2013-02-18 08:53:00
1:53 AM,43.0,36.0,76,30.10,10.0,Calm,Calm,-,N/A,,Overcast,0,2013-02-18 09:53:00
2:53 AM,43.0,36.0,76,30.08,10.0,Calm,Calm,-,N/A,,Overcast,0,2013-02-18 10:53:00
3:53 AM,42.8,35.6,76,30.04,10.0,Calm,Calm,-,N/A,,Overcast,0,2013-02-18 11:53:00
4:53 AM,41.0,36.0,82,30.04,10.0,Calm,Calm,-,N/A,,Overcast,0,2013-02-18 12:53:00
5:53 AM,41.0,35.1,79,30.02,10.0,Calm,Calm,-,N/A,,Overcast,0,2013-02-18 13:53:00
6:53 AM,39.9,35.1,83,30.02,10.0,Calm,Calm,-,N/A,,Overcast,0,2013-02-18 14:53:00
7:53 AM,41.0,35.1,79,30.01,10.0,Calm,Calm,-,N/A,,Overcast,0,2013-02-18 15:53:00
8:53 AM,43.0,37.0,80,30.00,10.0,Calm,Calm,-,0.00,,Overcast,0,2013-02-18 16:53:00
9:53 AM,44.1,37.9,79,29.99,10.0,Calm,Calm,-,N/A,,Overcast,0,2013-02-18 17:53:00
10:53 AM,46.0,37.9,73,29.98,10.0,Calm,Calm,-,N/A,,Overcast,0,2013-02-18 18:53:00
11:53 AM,46.9,36.0,66,29.96,10.0,ESE,3.5,-,N/A,,Overcast,110,2013-02-18 19:53:00
12:53 PM,46.9,34.0,61,29.93,10.0,Calm,Calm,-,N/A,,Mostly Cloudy,0,2013-02-18 20:53:00
1:53 PM,48.9,33.1,54,29.91,10.0,Variable,5.8,-,N/A,,Mostly Cloudy,0,2013-02-18 21:53:00
2:53 PM,50.0,32.0,50,29.89,10.0,SSE,5.8,-,N/A,,Overcast,160,2013-02-18 22:53:00
3:53 PM,50.0,33.1,52,29.88,10.0,Calm,Calm,-,N/A,,Overcast,0,2013-02-18 23:53:00
4:53 PM,48.9,34.0,56,29.86,10.0,ESE,6.9,-,0.00,,Overcast,120,2013-02-19 00:53:00
5:53 PM,46.0,36.0,68,29.85,10.0,NNE,5.8,-,N/A,,Overcast,30,2013-02-19 01:53:00
6:53 PM,45.0,36.0,71,29.83,10.0,NNE,5.8,-,N/A,,Overcast,30,2013-02-19 02:53:00
7:53 PM,41.0,34.0,76,29.82,10.0,North,4.6,-,N/A,,Mostly Cloudy,10,2013-02-19 03:53:00
8:53 PM,43.0,35.1,74,29.81,10.0,NNE,3.5,-,N/A,,Overcast,30,2013-02-19 04:53:00
9:53 PM,41.0,34.0,76,29.80,10.0,NNE,4.6,-,N/A,,Scattered Clouds,20,2013-02-19 05:53:00
10:53 PM,41.0,33.1,73,29.80,10.0,NE,3.5,-,N/A,,Mostly Cloudy,50,2013-02-19 06:53:00
11:53 PM,42.1,34.0,73,29.79,10.0,NNE,6.9,-,N/A,,Overcast,30,2013-02-19 07:53:00